Hourly Data Report for October 05, 2014

All times are specified in Local Standard Time (LST). Add 1 hour to adjust for Daylight Saving Time where and when it is observed.

PANGNIRTUNG
NUNAVUT

66°08'36.300" N
65°42'40.500" W
22.60 m
2403049
71826
WXP

Download Data

Hourly Data (October 2014)
Hourly Data Report for October 5, 2014
Temp Definition
°C
Dew Point Temp Definition
°C
Rel Hum Definition
%
Wind Dir Definition
10's deg

Wind Spd Definition
km/h
Visibility Definition
km
Stn Press Definition
kPa
Hmdx Definition


Wind Chill Definition


Weather Definition


TIME
00:00 -1.9 -8.9 59 13 27   101.86   -9 LegendNANA
01:00 -1.5 -9.1 56 13 26   101.88   -8 LegendNANA
02:00 -1.8 -9.2 57 13 23   101.90   -8 LegendNANA
03:00 -1.4 -9.3 55 13 25   101.94   -8 LegendNANA
04:00 -0.8 -9.3 53 14 27   101.94   -7 LegendNANA
05:00 -1.0 -8.4 57 10 15   101.97   -6 LegendNANA
06:00 -1.1 -8.0 59 12 14   101.99   -6 LegendNANA
07:00 -0.8 -7.4 61 12 20   101.99   -6 LegendNANA
08:00 -0.5 -7.6 59 11 26   101.99   -7 LegendNANA
09:00 0.2 -7.2 57 10 30   101.99     LegendNANA
10:00 0.8 -7.0 56 10 27   101.97     LegendNANA
11:00 1.1 -6.4 58 9 28   101.97     LegendNANA
12:00 1.1 -6.1 59 11 33   101.93     LegendNANA
13:00 1.5 -6.0 58 10 32   101.92     LegendNANA
14:00 1.4 -6.2 57 9 30   101.95     LegendNANA
15:00 1.5 -7.0 53 11 29   101.93     LegendNANA
16:00 2.0 -7.3 50 8 16   101.93     LegendNANA
17:00 1.9 -7.9 48 7 22   101.90     LegendNANA
18:00 2.3 -7.5 48 7 22   101.94     LegendNANA
19:00 2.0 -7.5 49 5 17   101.95     LegendNANA
20:00 2.4 -7.0 50 5 19   101.91     LegendNANA
21:00 2.0 -6.1 55 10 20   101.90     LegendNANA
22:00 1.0 -5.5 62 9 15   101.89     LegendNANA
23:00 0.7 -5.0 65 10 12   101.88     LegendNANA

Notes on Data Quality.

Legend

  • E = Estimated
  • M = Missing
  • NA = Not Available
  • ‡ = Partner data that is not subject to review by the National Climate Archives
Date modified: